www.pogodaiklimat.ru

Погода и климат >> Архив погоды >> Россия >> Еврейская автономная область >> Биробиджан


ПОГОДА в Биробиджане

  • Прогноз погоды в Биробиджане
  • Монитор погоды в Биробиджане

АРХИВ ПОГОДЫ в Биробиджане

Время (UTC), дата Ветер
(напр.,м/с)
 
Видим.   Явления Облачность Т
(С)
Тd
(С)
f
(%)
Тe
(С)
Тes
(С)
Комфортность P
(гПа)
Po
(гПа)
Тmin
(С)
Tmax
(С)
R
(мм)
R24
(мм)
S
(см)
18 16.07 СВ 1 50 км 9/0
[Ac trans]
+17.2 +16.6 96 +18 +18 1009.2 999.8
21 16.07 В 1 10 км 10/10 300 м
[St]
+18.5 +17.6 94 +20 +20 1008.4 999.1 +16.7
00 17.07 В 1 10 км 10/10 300 м
[St]
+21.0 +18.3 85 +26 +26 душно 1007.6 998.4
03 17.07 ЮВ 1 10 км слаб. ливневой дождь 10/10 300 м
[Cb cap]
+19.2 +18.4 95 +22 +22 комфорт 1007.0 997.7
06 17.07 В 2 10 км в посл. час ливневой дождь 10/10 300 м
[Cb cap]
+19.6 +18.8 95 +23 +23 комфорт 1005.5 996.2
09 17.07 В 1 10 км {ливн. осадки} 10/0 600 м
[As op]
+19.6 +18.7 95 +23 +24 комфорт 1004.2 994.9 +21.0 13
12 17.07 В 1 4000 м слаб. дождь 10/0 600 м
[As op]
+19.5 +18.7 95 +23 +23 комфорт 1004.8 995.5
15 17.07 штиль 0 10 км {ливн. осадки, дождь} 10/6 600 м
[Cb cap As op]
+19.2 +18.5 96 +21 +21 комфорт 1003.9 994.6
18 17.07 штиль 0 2000 м дымка {ливн. осадки, дождь} 10/0
[As op]
+19.2 +18.6 96 +21 +21 комфорт 1003.4 994.1
21 17.07 штиль 0 2000 м дымка 10/10 600 м
[St]
+19.1 +18.6 97 +21 +21 комфорт 1003.7 994.4 +19.0 1
00 18.07 ЮВ 1 20 км в посл. час ливневой дождь {морось} 8/6 600 м
[Cb cap Ac trans]
+22.1 +19.2 84 +28 +31 душно 1003.1 993.9
03 18.07 Ю 2 20 км {ливн. осадки} 8/8 600 м
[Cb cap]
+25.6 +19.8 70 +31 +35 очень
душно
1002.2 993.2
06 18.07 штиль 0 20 км в посл. час ливневой дождь 9/5 600 м
[Cb cap Cc]
+24.3 +20.9 81 +30 +37 очень
душно
1001.1 992.1
09 18.07 ЮВ 2 20 км 4/3 600 м
[Cb cap Ac trans]
+26.4 +21.2 73 +33 +35 очень
душно
1000.7 991.7 +27.3 7
12 18.07 штиль 0 10 км гроза без осадков {ливн. осадки} 6/3 600 м
[Cb cap Ac cuf]
+19.8 +18.6 93 +22 +22 комфорт 1003.0 993.7
15 18.07 СЗ 1 10 км {гроза} 9/1 600 м
[Cb cap Ac trans]
+19.4 +18.2 93 +23 +23 комфорт 1003.2 993.9
18 18.07 штиль 0 10 км {гроза} 9/3 600 м
[Cb cap Ac trans Ci fib]
+17.7 +16.9 95 +18 +18 1003.4 994.1
21 18.07 штиль 0 10 км туман поземный 3/0
[Ac lent Ci fib]
+18.2 +17.2 94 +19 +20 1004.4 995.1 +16.5
00 19.07 СЗ 1 50 км 1/1 1000 м
[Cu hum]
+23.9 +18.6 72 +28 +39 душно 1004.8 995.7
03 19.07 Ю 1 50 км 3/3 600 м
[Cb calv]
+27.3 +19.4 62 +33 +47 очень
душно
1004.4 995.4
06 19.07 Ю 2 50 км 3/3 600 м
[Cb cap]
+28.4 +19.7 59 +34 +42 очень
душно
1003.7 994.7
09 19.07 Ю 1 50 км 8/4 600 м
[Cb cap Ac trans]
+27.1 +19.8 64 +33 +34 очень
душно
1004.7 995.7 +29.3
12 19.07 штиль 0 50 км 4/1 1000 м
[Sc Cc]
+22.0 +19.6 86 +28 +28 душно 1006.4 997.2
15 19.07 штиль 0 50 км ясно +19.7 +18.8 95 +22 +22 комфорт 1007.2 997.9
18 19.07 штиль 0 50 км ясно +18.6 +18.0 96 +20 +20 1008.4 999.1
21 19.07 С 1 500 м туман ясно +18.9 +18.3 96 +22 +23 комфорт 1009.6 1000.3 +18.2
00 20.07 В 1 2000 м дымка {туман} 10/10 600 м
[St]
+22.0 +20.2 90 +28 +28 душно 1010.1 1000.9
03 20.07 ЮВ 2 20 км 9/3 600 м
[Cb cap Ci fib]
+27.7 +22.3 72 +36 +46 очень
душно
1009.8 1000.8
06 20.07 ЮВ 3 20 км 9/5 600 м
[Cb cap Cs]
+28.3 +20.8 64 +35 +39 очень
душно
1009.0 1000.0
09 20.07 ЮВ 3 50 км 8/1 600 м
[Cb cap Cs]
+27.7 +20.6 65 +34 +35 очень
душно
1008.2 999.2 +29.6
12 20.07 В 1 20 км 9/3 600 м
[Cb cap Cc]
+23.2 +19.5 80 +30 +30 очень
душно
1009.1 1000.0
15 20.07 штиль 0 20 км 9/0
[Ac As Ci sp]
+20.9 +19.9 94 +25 +25 комфорт 1009.3 1000.0
18 20.07 СВ 1 20 км 9/0
[Ac trans]
+20.7 +19.4 92 +26 +26 душно 1008.3 999.1
21 20.07 В 3 10 км 10/10 300 м
[St]
+21.3 +19.8 91 +26 +26 душно 1008.5 999.3 +20.6
00 21.07 В 1 2000 м морось 10/10 300 м
[St]
+22.7 +21.5 93 +30 +30 очень
душно
1008.7 999.5
03 21.07 ЮВ 2 4000 м слаб. морось 10/10 300 м
[St]
+24.5 +22.2 87 +32 +32 очень
душно
1008.2 999.1
06 21.07 В 2 2000 м морось 10/10 300 м
[St]
+24.9 +23.0 89 +33 +33 очень
душно
1007.4 998.3
09 21.07 В 2 20 км {морось} 9/9 600 м
[Cb cap]
+25.9 +23.9 89 +36 +36 очень
душно
1006.5 997.4 +26.1 0.7
12 21.07 В 2 20 км {морось} 4/3 600 м
[Cb cap Ac trans]
+24.7 +22.5 88 +32 +32 очень
душно
1006.8 997.7
15 21.07 В 2 20 км 10/4 600 м
[Cb cap Ac As]
+23.9 +22.1 90 +31 +31 очень
душно
1006.1 997.0
18 21.07 СВ 1 20 км 9/3 600 м
[Cb cap Ac trans]
+22.9 +21.8 94 +31 +31 очень
душно
1005.1 995.9
21 21.07 В 2 20 км 9/3 300 м
[St Ac trans]
+23.4 +22.0 92 +32 +32 очень
душно
1003.9 994.8 +22.5
00 22.07 В 3 20 км 10/4 600 м
[Cb cap As op]
+25.1 +21.5 80 +32 +33 очень
душно
1003.2 994.1
03 22.07 В 3 20 км {ливн. осадки} 10/8 300 м
[Cb cap As op]
+24.4 +21.8 85 +31 +32 очень
душно
1001.6 992.5
06 22.07 Ю 1 4000 м слаб. ливневой дождь 10/10 600 м
[Cb cap]
+21.6 +20.4 93 +27 +27 душно 1000.7 991.6
09 22.07 СВ 1 4000 м слаб. дождь 10/10 600 м
[Frnb Ns]
+21.9 +20.8 93 +28 +28 душно 998.7 989.6 +25.1 5
12 22.07 Ю 3 2000 м слаб. дождь 10/10 300 м
[Frnb Ns]
+20.6 +19.8 95 +25 +25 комфорт 998.7 989.5
15 22.07 Ю 2 2000 м слаб. морось {дождь} 10/10 300 м
[St]
+20.6 +19.8 95 +26 +26 душно 998.3 989.1
18 22.07 Ю 2 10 км {дождь, морось} 10/8 600 м
[Cb cap Ac und]
+20.5 +19.4 93 +25 +25 комфорт 997.8 988.6
21 22.07 Ю 1 20 км {ливн. осадки} 9/6 600 м
[Cb cap Ac trans]
+20.6 +19.4 93 +26 +26 душно 998.3 989.2 +20.2 9
00 23.07 ЮЗ 2 50 км {ливн. осадки} 8/5 600 м
[Cb cap Ac trans]
+23.0 +20.3 85 +30 +33 очень
душно
998.1 989.0
03 23.07 ЮЗ 3 50 км 6/6 600 м
[Cb cap]
+27.0 +19.8 65 +33 +39 очень
душно
997.6 988.6
06 23.07 штиль 0 50 км 9/3 600 м
[Cb cap Ac As]
+27.3 +20.7 67 +34 +38 очень
душно
997.8 988.8
09 23.07 С 2 20 км 10/8 600 м
[Cb cap As trans]
+26.1 +21.0 74 +33 +33 очень
душно
998.0 989.0 +27.9
12 23.07 штиль 0 20 км 9/6 600 м
[Cb cap Cs]
+22.5 +21.3 93 +30 +30 очень
душно
999.2 990.1

 

Местоположение метеостанции Биробиджан (Еврейская автономная область, Россия): широта 48.73 долгота 132.90 высота над уровнем моря 77 м.

В архиве по умолчанию представлена погода в Биробиджане за последнюю неделю. Архивные данные за месяц целиком и за предыдущие месяцы, начиная с января 2011 года, Вы можете получить, выбрав интересующий диапазон дат из раскрывающегося списка и нажав кнопку "Ввод!".


*Определитесь, кто Вы:
робот инопланетянин человек

Внимание! Время в таблицах - всемирное. Для получения местного времени необходимо прибавить поправку, которая равна 10 ч.

Смотрите также архив погоды в соседних городах и на ближайших метеорологических станциях:

Погода в Смидовиче (Еврейская автономная область, Россия) (68 км)
Погода в Урми (Хабаровский край, Россия) (78 км)
Погода в Ленинское (Еврейская автономная область, Россия) (90 км)
Погода в Хабаровск Центре (Еврейская автономная область, Россия) (91 км)
Погода в Биджане (Еврейская автономная область, Россия) (115 км)
Погода в Облучье (Еврейская автономная область, Россия) (142 км)
Погода в Бычихе (Хабаровский край, Россия) (149 км)
Погода в Верховье Урми (Хабаровский край, Россия) (153 км)
Погода на Хабаровск Мосту (Хабаровский край, Россия) (157 км)
Погода в Хабаровске АМС (Хабаровский край, Россия) (159 км)

Пояснения к столбцам:

Ветер - указаны скорость ветра в м/с - средняя за 10 мин, порывы в срок и между сроками (в фигурных скобках) и направление, откуда дует ветер: С - северный, СВ - северо-восточный, В - восточный, ЮВ - юго-восточный, Ю - южный, ЮЗ - юго-западный, З - западный, СЗ - северо-западный.
Видимость - горизонтальная дальность видимости в метрах или километрах. При видимости от 1 до 10 км при отсутствии осадков обычно наблюдается дымка, при ухудшении видимости до 1 км и менее - туман. В сухую погоду видимость может ухудшаться дымом, пылью или мглою.
Явления - указаны атмосферные явления, наблюдавшиеся в срок или в последний час перед сроком; фигурными скобками обозначены явления, наблюдавшиеся между сроками (за 1-3 часа до срока); квадратными скобками обозначены град или гололедные отложения с указанием их диаметра в мм.
Облачность - указаны через наклонную черту общая и нижняя облачность в баллах и высота нижней границы облаков в метрах; квадратными скобками обозначены формы облаков: Ci - перистые, Cs - перисто-слоистые, Cc - перисто-кучевые, Ac - высококучевые, As - высокослоистые, Sc - слоисто-кучевые, Ns - слоисто-дождевые, Cu - кучевые, Cb - кучево-дождевые. Подробнее классификацию облаков см. в Атласе облаков (PDF).
T - Температура воздуха - температура, измеренная на высоте 2 м над землей.
Td - Температура точки росы - температура, при понижении до которой содержащийся в воздухе водяной пар достигнет насыщения.
f - Относительная влажность воздуха - влажноcть воздуха, измеренная на высоте 2 м над землей.
Te - Эффективная температура - температура, которую ощущает одетый по сезону человек в тени. Характеристика душности погоды. При расчете учитывается влияние влажности воздуха и скорости ветра на теплоощущения человека.
Tes - Эффективная температура на солнце - температура, которую ощущает человек, с поправкой на солнечный нагрев. Характеристика знойности погоды. Зависит от высоты солнца над горизонтом, облачности и скорости ветра. Ночью, в пасмурную погоду, а также при ветре 12 м/с и более поправка равна нулю.
P - Атмосферное давление - приведенное к уровню моря атмосферное давление.
Po - Атмосферное давление - измеренное на уровне метеостанции атмосферное давление.
Tmin - Минимальная температура - минимум температуры воздуха на высоте 2 м над землей.
Tmax - Максимальная температура - максимум температуры воздуха на высоте 2 м над землей.
R - Количество осадков - Количество выпавших осадков за период времени, мм. При наведении курсора мыши на число - период времени, за который выпало указанное количество осадков.
R24 - Количество осадков - Количество выпавших осадков за 24 часа, мм.
S - Снежный покров - Высота снежного покрова, см. При наведении курсора мыши на число - состояние снежного покрова и степень покрытия местности в баллах.